User: anonymous   Login
Location: Arbon
(43.0005°N, 0.7472°E)
Time: 00:39:13
(UTC+00:00)
Language:

Cosmos 1464 Rocket - Orbit

View from above orbital plane
View from above orbital plane
View from above satellite
View from above satellite

Ground track
Ground track

The orbit data is extracted from the following two-line orbital elements,

1 14085U 83048B   20293.42375355 -.00000022  00000-0 -37251-4 0  9999
2 14085  82.9408 264.0245 0032173 294.2646  65.5150 13.76295515878507
Epoch (UTC): 19 October 2020 10:10:12
Eccentricity: 0.0032173
inclination: 82.9408°
perigee height: 953 km
apogee height: 1001 km
right ascension of ascending node: 264.0245°
argument of perigee: 294.2646°
revolutions per day: 13.76295515
mean anomaly at epoch: 65.5150°
orbit number at epoch: 87850

The dashed part of the orbit path shows where the satellite is in the earth's shadow,  

DLR